Location: Goettingen
(51.5300°N, 9.9433°E)
Time: 10:58:02
(UTC+02:00)

ISS - Pass Details

Date: 16 May 2019
Orbit: 407 x 410 km, 51.6° (Epoch: 21 May)

Event Time Altitude Azimuth Distance (km) Brightness Sun altitude
Rises 04:37:01 0° 284° (WNW) 2,340 -0.3 -7.0°
Reaches altitude 10° 04:39:11 10° 276° (W) 1,477 -1.4 -6.8°
Maximum altitude 04:42:17 37° 207° (SSW) 652 -3.2 -6.4°
Drops below altitude 10° 04:45:22 10° 138° (SE) 1,472 -1.0 -6.1°
Sets 04:47:31 0° 130° (SE) 2,331 0.2 -5.8°
